Flag for Greenland Weather past 2 weeks in Danmarkshavn, Greenland

Now
24 °F

Overcast.


Feels Like: 11 °F
Forecast: 22 / 26 °F
Wind: 14 mph from Northwest

Location: Danmarkshavn

Current Time: Sep 16, 2014 at 8:29:44 AM

Latest Report: Sep 16, 2014 at 7:00 AM


Visibility: 31 mi

Pressure: 29.57 "Hg

Humidity: 72%

Dew point: 16 °F

Location of DanmarkshavnLocation

Historic Weather in Danmarkshavn — Graph

°F

Danmarkshavn temperature yesterday

Maximum temperature yesterday: 31 °F (at 2:00 AM)
Minimum temperature yesterday: 25 °F (at 6:00 PM)
Average temperature yesterday: 28 °F

Past Weeks' High & Low Weather Summary

 TemperatureHumidityPressure
High38 °F (Sep 1, 10:00 AM)99% (Sep 3, 3:00 AM)29.96 "Hg (Sep 3, 3:00 AM)
Low23 °F (Sep 9, 6:00 AM)41% (Sep 7, 12:00 PM)29.23 "Hg (Sep 12, 11:00 PM)
Average30 °F75%29.70 "Hg
* Reported Sep 1 7:00 AM — Sep 16 7:00 AM, Danmarkshavn, Weather by CustomWeather, © 2014

Note: Actual official high and low records may vary slightly from our data, if they occured in-between our weather recording intervals... More about our weather records

Advertising

Danmarkshavn weather history for previous 24 hours

 ConditionsComfort  
Time TempWeatherWind HumidityBarometerVisibility
7:00 AM
Sep 16
24 °FOvercast.14 mph72%29.57 "Hg31 mi
6:00 AM25 °FOvercast.9 mph71%29.57 "Hg31 mi
5:00 AM25 °FOvercast.13 mph69%29.57 "Hg31 mi
4:00 AM25 °FOvercast.10 mph80%29.57 "Hg31 mi
3:00 AM24 °FPassing clouds.7 mph82%29.59 "Hg31 mi
2:00 AM25 °FOvercast.17 mph81%29.59 "Hg28 mi
1:00 AM26 °FOvercast.14 mph81%29.61 "Hg31 mi
12:00 AM26 °FOvercast.8 mph82%29.63 "Hg31 mi
11:00 PM
Sep 15
26 °FLight snow. Overcast.9 mph86%29.64 "Hg3 mi
10:00 PM26 °FLight snow. Low clouds.5 mph89%29.65 "Hg4 mi
9:00 PM25 °FLight snow. Low clouds.No wind88%29.65 "Hg1 mi
8:00 PM26 °FLight snow. Overcast.3 mph84%29.65 "Hg22 mi
7:00 PM25 °FLight snow. Overcast.10 mph85%29.66 "Hg5 mi
6:00 PM25 °FLight snow. Overcast.12 mph86%29.68 "Hg2 mi
5:00 PM26 °FLight snow. Overcast.9 mph84%29.70 "Hg5 mi
4:00 PM26 °FHeavy snow. Overcast.14 mph82%29.72 "Hg7 mi
3:00 PM27 °FDrizzle. Overcast.15 mph78%29.74 "Hg13 mi
2:00 PM27 °FDrizzle. Overcast.15 mph74%29.76 "Hg14 mi
1:00 PM28 °FHeavy rain. Overcast.15 mph70%29.79 "Hg25 mi
12:00 PM29 °FOvercast.7 mph72%29.80 "Hg31 mi
11:00 AM30 °FOvercast.6 mph74%29.82 "Hg28 mi
10:00 AM30 °FOvercast.6 mph77%29.84 "Hg31 mi
9:00 AM29 °FOvercast.8 mph75%29.84 "Hg31 mi
8:00 AM29 °FOvercast.5 mph72%29.85 "Hg31 mi
Weather by CustomWeather, © 2014

See weather overviewHow to use our weather pages